User: anonymous   Login
Location: Remedello Sotto
(45.2500°N, 10.3667°E)
Time: 20:32:57
(UTC+00:00)
Language:

YAOGAN 1 - Orbit

View from above orbital plane
View from above orbital plane
View from above satellite
View from above satellite

Ground track
Ground track

The orbit data is extracted from the following two-line orbital elements,

1 29092U 06015A   24113.83522458  .00002976  00000-0  35459-3 0  9995
2 29092  97.8090 140.3625 0001528  96.9436 263.1952 14.85063759973118
Epoch (UTC): 22 April 2024 20:02:43
Eccentricity: 0.0001528
inclination: 97.8090°
perigee height: 612 km
apogee height: 614 km
right ascension of ascending node: 140.3625°
argument of perigee: 96.9436°
revolutions per day: 14.85063759
mean anomaly at epoch: 263.1952°
orbit number at epoch: 97311

The dashed part of the orbit path shows where the satellite is in the earth's shadow,  

DLR